Time,TemperatureF,DewpointF,PressureIn,WindDirection,WindDirectionDegrees,WindSpeedMPH,WindSpeedGustMPH,Humidity,HourlyPrecipIn,Conditions,Clouds,dailyrainin,SoftwareType,DateUTC
2013-06-06 00:02:00,51.8,48.3,0.00,SSW,206,2.2,5.5,88,0.00,,,0.00,WUHU216CR1000,2013-06-06 07:02:00,
2013-06-06 00:07:00,51.8,48.3,0.00,SSW,206,2.2,5.5,88,0.00,,,0.00,WUHU216CR1000,2013-06-06 07:07:00,
2013-06-06 00:12:00,51.8,48.3,0.00,SSW,206,2.2,5.5,88,0.00,,,0.00,WUHU216CR1000,2013-06-06 07:12:00,
2013-06-06 00:17:00,51.8,48.4,0.00,SW,229,1.6,5.7,88,0.00,,,0.00,WUHU216CR1000,2013-06-06 07:17:00,
2013-06-06 00:22:00,51.8,48.4,0.00,SW,229,1.6,5.7,88,0.00,,,0.00,WUHU216CR1000,2013-06-06 07:22:00,
2013-06-06 00:27:00,51.8,48.4,0.00,SW,229,1.6,5.7,88,0.00,,,0.00,WUHU216CR1000,2013-06-06 07:27:00,
2013-06-06 00:32:00,51.9,48.6,0.00,SW,231,1.8,5.7,88,0.00,,,0.00,WUHU216CR1000,2013-06-06 07:32:00,
2013-06-06 00:37:00,51.9,48.6,0.00,SW,231,1.8,5.3,88,0.00,,,0.00,WUHU216CR1000,2013-06-06 07:37:00,
2013-06-06 00:42:00,51.9,48.6,0.00,SW,231,1.8,5.3,88,0.00,,,0.00,WUHU216CR1000,2013-06-06 07:42:00,
2013-06-06 00:47:00,52.0,48.7,0.00,WSW,244,1.3,5.3,88,0.00,,,0.00,WUHU216CR1000,2013-06-06 07:47:00,
2013-06-06 00:52:00,52.0,48.7,0.00,WSW,244,1.3,4.6,88,0.00,,,0.00,WUHU216CR1000,2013-06-06 07:52:00,
2013-06-06 00:57:00,52.0,48.7,0.00,WSW,244,1.3,4.6,88,0.00,,,0.00,WUHU216CR1000,2013-06-06 07:57:00,
2013-06-06 01:02:00,52.1,48.6,0.00,WSW,246,2.2,6.6,88,0.00,,,0.00,WUHU216CR1000,2013-06-06 08:02:00,
2013-06-06 01:07:00,52.1,48.6,0.00,WSW,246,2.2,6.6,88,0.00,,,0.00,WUHU216CR1000,2013-06-06 08:07:00,
2013-06-06 01:12:00,52.1,48.6,0.00,WSW,246,2.2,6.6,88,0.00,,,0.00,WUHU216CR1000,2013-06-06 08:12:00,
2013-06-06 01:17:00,52.0,48.4,0.00,SW,225,1.8,6.6,88,0.00,,,0.00,WUHU216CR1000,2013-06-06 08:17:00,
2013-06-06 01:22:00,52.0,48.4,0.00,SW,225,1.8,6.1,88,0.00,,,0.00,WUHU216CR1000,2013-06-06 08:22:00,
2013-06-06 01:27:00,52.0,48.4,0.00,SW,225,1.8,6.1,88,0.00,,,0.00,WUHU216CR1000,2013-06-06 08:27:00,
2013-06-06 01:32:00,52.0,48.5,0.00,WSW,249,2.4,6.1,88,0.00,,,0.00,WUHU216CR1000,2013-06-06 08:32:00,
2013-06-06 01:37:00,52.0,48.5,0.00,WSW,249,2.4,4.8,88,0.00,,,0.00,WUHU216CR1000,2013-06-06 08:37:00,
2013-06-06 01:42:00,52.0,48.5,0.00,WSW,249,2.4,4.8,88,0.00,,,0.00,WUHU216CR1000,2013-06-06 08:42:00,
2013-06-06 01:47:00,52.2,48.5,0.00,WSW,254,1.6,4.8,87,0.00,,,0.00,WUHU216CR1000,2013-06-06 08:47:00,
2013-06-06 01:52:00,52.2,48.5,0.00,WSW,254,1.6,4.6,87,0.00,,,0.00,WUHU216CR1000,2013-06-06 08:52:00,
2013-06-06 01:57:00,52.2,48.5,0.00,WSW,254,1.6,4.6,87,0.00,,,0.00,WUHU216CR1000,2013-06-06 08:57:00,
2013-06-06 02:02:00,52.0,48.4,0.00,SSW,208,2.2,6.1,88,0.00,,,0.00,WUHU216CR1000,2013-06-06 09:02:00,
2013-06-06 02:07:00,52.0,48.4,0.00,SSW,208,2.2,6.1,88,0.00,,,0.00,WUHU216CR1000,2013-06-06 09:07:00,
2013-06-06 02:12:00,52.0,48.4,0.00,SSW,208,2.2,6.1,88,0.00,,,0.00,WUHU216CR1000,2013-06-06 09:12:00,
2013-06-06 02:17:00,51.5,48.3,0.00,SW,215,2.0,6.1,89,0.00,,,0.00,WUHU216CR1000,2013-06-06 09:17:00,
2013-06-06 02:22:00,51.5,48.3,0.00,SW,215,2.0,5.0,89,0.00,,,0.00,WUHU216CR1000,2013-06-06 09:22:00,
2013-06-06 02:27:00,51.5,48.3,0.00,SW,215,2.0,5.0,89,0.00,,,0.00,WUHU216CR1000,2013-06-06 09:27:00,
2013-06-06 02:32:00,51.3,48.2,0.00,SSW,200,2.3,5.3,89,0.00,,,0.00,WUHU216CR1000,2013-06-06 09:32:00,
2013-06-06 02:37:00,51.3,48.2,0.00,SSW,200,2.3,5.3,89,0.00,,,0.00,WUHU216CR1000,2013-06-06 09:37:00,
2013-06-06 02:42:00,51.3,48.2,0.00,SSW,200,2.3,5.3,89,0.00,,,0.00,WUHU216CR1000,2013-06-06 09:42:00,
2013-06-06 02:47:00,51.2,48.2,0.00,SW,216,1.4,5.3,89,0.00,,,0.00,WUHU216CR1000,2013-06-06 09:47:00,
2013-06-06 02:52:00,51.2,48.2,0.00,SW,216,1.4,3.9,89,0.00,,,0.00,WUHU216CR1000,2013-06-06 09:52:00,
2013-06-06 02:57:00,51.2,48.2,0.00,SW,216,1.4,3.9,89,0.00,,,0.00,WUHU216CR1000,2013-06-06 09:57:00,
2013-06-06 03:02:00,51.5,48.5,0.00,WSW,245,1.8,4.2,89,0.00,,,0.00,WUHU216CR1000,2013-06-06 10:02:00,
2013-06-06 03:07:00,51.5,48.5,0.00,WSW,245,1.8,4.2,89,0.00,,,0.00,WUHU216CR1000,2013-06-06 10:07:00,
2013-06-06 03:12:00,51.5,48.5,0.00,WSW,245,1.8,4.2,89,0.00,,,0.00,WUHU216CR1000,2013-06-06 10:12:00,
2013-06-06 03:17:00,51.6,48.4,0.00,WSW,237,0.8,4.2,89,0.00,,,0.00,WUHU216CR1000,2013-06-06 10:17:00,
2013-06-06 03:22:00,51.6,48.4,0.00,WSW,237,0.8,3.7,89,0.00,,,0.00,WUHU216CR1000,2013-06-06 10:22:00,
2013-06-06 03:27:00,51.6,48.4,0.00,WSW,237,0.8,3.7,89,0.00,,,0.00,WUHU216CR1000,2013-06-06 10:27:00,
2013-06-06 03:32:00,51.7,48.4,0.00,West,264,1.4,4.6,88,0.00,,,0.00,WUHU216CR1000,2013-06-06 10:32:00,
2013-06-06 03:37:00,51.7,48.4,0.00,West,264,1.4,4.6,88,0.00,,,0.00,WUHU216CR1000,2013-06-06 10:37:00,
2013-06-06 03:42:00,51.7,48.4,0.00,West,264,1.4,4.6,88,0.00,,,0.00,WUHU216CR1000,2013-06-06 10:42:00,
2013-06-06 03:47:00,51.5,47.9,0.00,SSW,208,1.6,4.6,88,0.00,,,0.00,WUHU216CR1000,2013-06-06 10:47:00,
2013-06-06 03:52:00,51.5,47.9,0.00,SSW,208,1.6,4.4,88,0.00,,,0.00,WUHU216CR1000,2013-06-06 10:52:00,
2013-06-06 03:57:00,51.5,47.9,0.00,SSW,208,1.6,4.4,88,0.00,,,0.00,WUHU216CR1000,2013-06-06 10:57:00,
2013-06-06 04:02:00,51.5,48.0,0.00,WSW,255,1.7,4.6,88,0.00,,,0.00,WUHU216CR1000,2013-06-06 11:02:00,
2013-06-06 04:07:00,51.5,48.0,0.00,WSW,255,1.7,4.6,88,0.00,,,0.00,WUHU216CR1000,2013-06-06 11:07:00,
2013-06-06 04:12:00,51.5,48.0,0.00,WSW,255,1.7,4.6,88,0.00,,,0.00,WUHU216CR1000,2013-06-06 11:12:00,
2013-06-06 04:17:00,51.7,48.0,0.00,WSW,247,1.5,5.9,87,0.00,,,0.00,WUHU216CR1000,2013-06-06 11:17:00,
2013-06-06 04:22:00,51.7,48.0,0.00,WSW,247,1.5,5.9,87,0.00,,,0.00,WUHU216CR1000,2013-06-06 11:22:00,
2013-06-06 04:27:00,51.7,48.0,0.00,WSW,247,1.5,5.9,87,0.00,,,0.00,WUHU216CR1000,2013-06-06 11:27:00,
2013-06-06 04:32:00,51.5,47.7,0.00,WSW,254,1.6,5.9,87,0.00,,,0.00,WUHU216CR1000,2013-06-06 11:32:00,
2013-06-06 04:37:00,51.5,47.7,0.00,WSW,254,1.6,5.5,87,0.00,,,0.00,WUHU216CR1000,2013-06-06 11:37:00,
2013-06-06 04:42:00,51.5,47.7,0.00,WSW,254,1.6,5.5,87,0.00,,,0.00,WUHU216CR1000,2013-06-06 11:42:00,
2013-06-06 04:47:00,51.6,47.6,0.00,WNW,293,2.4,5.5,86,0.00,,,0.00,WUHU216CR1000,2013-06-06 11:47:00,
2013-06-06 04:52:00,51.6,47.6,0.00,WNW,293,2.4,5.5,86,0.00,,,0.00,WUHU216CR1000,2013-06-06 11:52:00,
2013-06-06 04:57:00,51.6,47.6,0.00,WNW,293,2.4,5.5,86,0.00,,,0.00,WUHU216CR1000,2013-06-06 11:57:00,
2013-06-06 05:02:00,51.4,47.4,0.00,NW,317,2.5,5.5,86,0.00,,,0.00,WUHU216CR1000,2013-06-06 12:02:00,
2013-06-06 05:07:00,51.4,47.4,0.00,NW,317,2.5,4.8,86,0.00,,,0.00,WUHU216CR1000,2013-06-06 12:07:00,
2013-06-06 05:12:00,51.4,47.4,0.00,NW,317,2.5,4.8,86,0.00,,,0.00,WUHU216CR1000,2013-06-06 12:12:00,
2013-06-06 05:17:00,51.3,47.4,0.00,NNW,346,1.7,4.8,86,0.00,,,0.00,WUHU216CR1000,2013-06-06 12:17:00,
2013-06-06 05:22:00,51.3,47.4,0.00,NNW,346,1.7,3.9,86,0.00,,,0.00,WUHU216CR1000,2013-06-06 12:22:00,
2013-06-06 05:27:00,51.3,47.4,0.00,NNW,346,1.7,3.9,86,0.00,,,0.00,WUHU216CR1000,2013-06-06 12:27:00,
2013-06-06 05:32:00,51.3,47.5,0.00,NNW,335,1.2,3.9,87,0.00,,,0.00,WUHU216CR1000,2013-06-06 12:32:00,
2013-06-06 05:37:00,51.3,47.5,0.00,NNW,335,1.2,2.4,87,0.00,,,0.00,WUHU216CR1000,2013-06-06 12:37:00,
2013-06-06 05:42:00,51.3,47.5,0.00,NNW,335,1.2,2.4,87,0.00,,,0.00,WUHU216CR1000,2013-06-06 12:42:00,
2013-06-06 05:47:00,51.5,47.6,0.00,NNW,334,1.5,2.9,87,0.00,,,0.00,WUHU216CR1000,2013-06-06 12:47:00,
2013-06-06 05:52:00,51.5,47.6,0.00,NNW,334,1.5,2.9,87,0.00,,,0.00,WUHU216CR1000,2013-06-06 12:52:00,
2013-06-06 05:57:00,51.5,47.6,0.00,NNW,334,1.5,2.9,87,0.00,,,0.00,WUHU216CR1000,2013-06-06 12:57:00,
2013-06-06 06:02:00,51.3,47.6,0.00,North,4,0.8,2.9,87,0.00,,,0.00,WUHU216CR1000,2013-06-06 13:02:00,
2013-06-06 06:07:00,51.3,47.6,0.00,North,4,0.8,2.4,87,0.00,,,0.00,WUHU216CR1000,2013-06-06 13:07:00,
2013-06-06 06:12:00,51.3,47.6,0.00,North,4,0.8,2.4,87,0.00,,,0.00,WUHU216CR1000,2013-06-06 13:12:00,
2013-06-06 06:17:00,51.3,47.6,0.00,North,4,0.8,2.4,87,0.00,,,0.00,WUHU216CR1000,2013-06-06 13:17:00,
2013-06-06 06:51:00,51.3,47.6,0.00,North,4,0.8,2.4,87,0.00,,,0.00,WUHU216CR1000,2013-06-06 13:51:00,
2013-06-06 06:56:00,51.3,47.6,0.00,North,4,0.8,2.4,87,0.00,,,0.00,WUHU216CR1000,2013-06-06 13:56:00,
2013-06-06 07:01:00,51.5,48.4,0.00,NNE,30,1.2,3.1,89,0.00,,,0.00,WUHU216CR1000,2013-06-06 14:01:00,
2013-06-06 07:07:00,51.5,48.4,0.00,NNE,30,1.2,3.1,89,0.00,,,0.00,WUHU216CR1000,2013-06-06 14:07:00,
2013-06-06 07:12:00,51.5,48.4,0.00,NNE,30,1.2,3.1,89,0.00,,,0.00,WUHU216CR1000,2013-06-06 14:12:00,
2013-06-06 07:17:00,51.6,48.6,0.00,North,357,1.5,3.1,89,0.00,,,0.00,WUHU216CR1000,2013-06-06 14:17:00,
2013-06-06 07:22:00,51.6,48.6,0.00,North,357,1.5,3.1,89,0.00,,,0.00,WUHU216CR1000,2013-06-06 14:22:00,
2013-06-06 07:27:00,51.6,48.6,0.00,North,357,1.5,3.1,89,0.00,,,0.00,WUHU216CR1000,2013-06-06 14:27:00,
2013-06-06 07:32:00,51.9,48.9,0.00,North,357,0.9,3.1,89,0.00,,,0.00,WUHU216CR1000,2013-06-06 14:32:00,
2013-06-06 07:37:00,51.9,48.9,0.00,North,357,0.9,2.4,89,0.00,,,0.00,WUHU216CR1000,2013-06-06 14:37:00,
2013-06-06 07:42:00,51.9,48.9,0.00,North,357,0.9,2.4,89,0.00,,,0.00,WUHU216CR1000,2013-06-06 14:42:00,
2013-06-06 07:47:00,52.2,49.1,0.00,NNW,345,1.4,3.5,89,0.00,,,0.00,WUHU216CR1000,2013-06-06 14:47:00,
2013-06-06 07:52:00,52.2,49.1,0.00,NNW,345,1.4,3.5,89,0.00,,,0.00,WUHU216CR1000,2013-06-06 14:52:00,
2013-06-06 07:57:00,52.2,49.1,0.00,NNW,345,1.4,3.5,89,0.00,,,0.00,WUHU216CR1000,2013-06-06 14:57:00,
2013-06-06 08:02:00,52.3,49.3,0.00,NNE,12,1.2,3.5,89,0.00,,,0.00,WUHU216CR1000,2013-06-06 15:02:00,
2013-06-06 08:07:00,52.3,49.3,0.00,NNE,12,1.2,3.1,89,0.00,,,0.00,WUHU216CR1000,2013-06-06 15:07:00,
2013-06-06 08:12:00,52.3,49.3,0.00,NNE,12,1.2,3.1,89,0.00,,,0.00,WUHU216CR1000,2013-06-06 15:12:00,
2013-06-06 08:17:00,52.8,49.7,0.00,NW,311,1.6,3.7,89,0.00,,,0.00,WUHU216CR1000,2013-06-06 15:17:00,
2013-06-06 08:22:00,52.8,49.7,0.00,NW,311,1.6,3.7,89,0.00,,,0.00,WUHU216CR1000,2013-06-06 15:22:00,
2013-06-06 08:27:00,52.8,49.7,0.00,NW,311,1.6,3.7,89,0.00,,,0.00,WUHU216CR1000,2013-06-06 15:27:00,
2013-06-06 08:32:00,53.3,49.8,0.00,NNE,25,1.0,3.7,88,0.00,,,0.00,WUHU216CR1000,2013-06-06 15:32:00,
2013-06-06 08:37:00,53.3,49.8,0.00,NNE,25,1.0,3.1,88,0.00,,,0.00,WUHU216CR1000,2013-06-06 15:37:00,
2013-06-06 08:42:00,53.3,49.8,0.00,NNE,25,1.0,3.1,88,0.00,,,0.00,WUHU216CR1000,2013-06-06 15:42:00,
2013-06-06 08:47:00,53.5,49.8,0.00,South,170,1.9,3.5,87,0.00,,,0.00,WUHU216CR1000,2013-06-06 15:47:00,
2013-06-06 08:52:00,53.5,49.8,0.00,South,170,1.9,3.5,87,0.00,,,0.00,WUHU216CR1000,2013-06-06 15:52:00,
2013-06-06 08:57:00,53.5,49.8,0.00,South,170,1.9,3.5,87,0.00,,,0.00,WUHU216CR1000,2013-06-06 15:57:00,
2013-06-06 09:02:00,53.5,49.8,0.00,SSE,159,1.6,3.7,87,0.00,,,0.00,WUHU216CR1000,2013-06-06 16:02:00,
2013-06-06 09:07:00,53.5,49.8,0.00,SSE,159,1.6,3.7,87,0.00,,,0.00,WUHU216CR1000,2013-06-06 16:07:00,
2013-06-06 09:12:00,53.5,49.8,0.00,SSE,159,1.6,3.7,87,0.00,,,0.00,WUHU216CR1000,2013-06-06 16:12:00,
2013-06-06 09:17:00,54.7,50.4,0.00,SW,214,1.2,3.7,85,0.00,,,0.00,WUHU216CR1000,2013-06-06 16:17:00,
2013-06-06 09:22:00,54.7,50.4,0.00,SW,214,1.2,3.1,85,0.00,,,0.00,WUHU216CR1000,2013-06-06 16:22:00,
2013-06-06 09:27:00,54.7,50.4,0.00,SW,214,1.2,3.1,85,0.00,,,0.00,WUHU216CR1000,2013-06-06 16:27:00,
2013-06-06 09:32:00,56.2,50.5,0.00,SW,231,1.6,4.4,81,0.00,,,0.00,WUHU216CR1000,2013-06-06 16:32:00,
2013-06-06 09:37:00,56.2,50.5,0.00,SW,231,1.6,4.4,81,0.00,,,0.00,WUHU216CR1000,2013-06-06 16:37:00,
2013-06-06 09:42:00,56.2,50.5,0.00,SW,231,1.6,4.4,81,0.00,,,0.00,WUHU216CR1000,2013-06-06 16:42:00,
2013-06-06 09:47:00,57.0,50.7,0.00,SW,232,1.7,5.0,79,0.00,,,0.00,WUHU216CR1000,2013-06-06 16:47:00,
2013-06-06 09:52:00,57.0,50.7,0.00,SW,232,1.7,5.0,79,0.00,,,0.00,WUHU216CR1000,2013-06-06 16:52:00,
2013-06-06 09:57:00,57.0,50.7,0.00,SW,232,1.7,5.0,79,0.00,,,0.00,WUHU216CR1000,2013-06-06 16:57:00,
2013-06-06 10:02:00,57.5,50.7,0.00,SSW,200,1.7,5.9,78,0.00,,,0.00,WUHU216CR1000,2013-06-06 17:02:00,
2013-06-06 10:07:00,57.5,50.7,0.00,SSW,200,1.7,5.9,78,0.00,,,0.00,WUHU216CR1000,2013-06-06 17:07:00,
2013-06-06 10:12:00,57.5,50.7,0.00,SSW,200,1.7,5.9,78,0.00,,,0.00,WUHU216CR1000,2013-06-06 17:12:00,
2013-06-06 10:17:00,58.4,51.2,0.00,SW,217,3.0,7.2,77,0.00,,,0.00,WUHU216CR1000,2013-06-06 17:17:00,
2013-06-06 10:22:00,58.4,51.2,0.00,SW,217,3.0,7.2,77,0.00,,,0.00,WUHU216CR1000,2013-06-06 17:22:00,
2013-06-06 10:27:00,58.4,51.2,0.00,SW,217,3.0,7.2,77,0.00,,,0.00,WUHU216CR1000,2013-06-06 17:27:00,
2013-06-06 10:32:00,58.2,51.2,0.00,SSW,194,2.8,7.7,78,0.00,,,0.00,WUHU216CR1000,2013-06-06 17:32:00,
2013-06-06 10:37:00,58.2,51.2,0.00,SSW,194,2.8,7.7,78,0.00,,,0.00,WUHU216CR1000,2013-06-06 17:37:00,
2013-06-06 10:42:00,58.2,51.2,0.00,SSW,194,2.8,7.7,78,0.00,,,0.00,WUHU216CR1000,2013-06-06 17:42:00,
2013-06-06 10:47:00,60.6,52.2,0.00,WSW,238,2.5,7.7,74,0.00,,,0.00,WUHU216CR1000,2013-06-06 17:47:00,
2013-06-06 10:52:00,60.6,52.2,0.00,WSW,238,2.5,7.0,74,0.00,,,0.00,WUHU216CR1000,2013-06-06 17:52:00,
2013-06-06 10:57:00,60.6,52.2,0.00,WSW,238,2.5,7.0,74,0.00,,,0.00,WUHU216CR1000,2013-06-06 17:57:00,
2013-06-06 11:02:00,61.9,52.3,0.00,South,191,3.9,8.3,71,0.00,,,0.00,WUHU216CR1000,2013-06-06 18:02:00,
2013-06-06 11:07:00,61.9,52.3,0.00,South,191,3.9,8.3,71,0.00,,,0.00,WUHU216CR1000,2013-06-06 18:07:00,
2013-06-06 11:12:00,61.9,52.3,0.00,South,191,3.9,8.3,71,0.00,,,0.00,WUHU216CR1000,2013-06-06 18:12:00,
2013-06-06 11:17:00,63.3,52.8,0.00,SSW,193,4.8,9.6,68,0.00,,,0.00,WUHU216CR1000,2013-06-06 18:17:00,
2013-06-06 11:22:00,63.3,52.8,0.00,SSW,193,4.8,9.6,68,0.00,,,0.00,WUHU216CR1000,2013-06-06 18:22:00,
2013-06-06 11:27:00,63.3,52.8,0.00,SSW,193,4.8,9.6,68,0.00,,,0.00,WUHU216CR1000,2013-06-06 18:27:00,
2013-06-06 11:32:00,64.0,52.9,0.00,SSW,192,4.5,11.0,67,0.00,,,0.00,WUHU216CR1000,2013-06-06 18:32:00,
2013-06-06 11:37:00,64.0,52.9,0.00,SSW,192,4.5,11.0,67,0.00,,,0.00,WUHU216CR1000,2013-06-06 18:37:00,
2013-06-06 11:42:00,64.0,52.9,0.00,SSW,192,4.5,11.0,67,0.00,,,0.00,WUHU216CR1000,2013-06-06 18:42:00,
2013-06-06 11:47:00,64.8,52.8,0.00,SSW,193,4.8,11.0,65,0.00,,,0.00,WUHU216CR1000,2013-06-06 18:47:00,
2013-06-06 11:52:00,64.8,52.8,0.00,SSW,193,4.8,10.7,65,0.00,,,0.00,WUHU216CR1000,2013-06-06 18:52:00,
2013-06-06 11:57:00,64.8,52.8,0.00,SSW,193,4.8,10.7,65,0.00,,,0.00,WUHU216CR1000,2013-06-06 18:57:00,
2013-06-06 12:02:00,65.2,52.9,0.00,SSW,201,5.0,11.2,64,0.00,,,0.00,WUHU216CR1000,2013-06-06 19:02:00,
2013-06-06 12:07:00,65.2,52.9,0.00,SSW,201,5.0,11.2,64,0.00,,,0.00,WUHU216CR1000,2013-06-06 19:07:00,
2013-06-06 12:12:00,65.2,52.9,0.00,SSW,201,5.0,11.2,64,0.00,,,0.00,WUHU216CR1000,2013-06-06 19:12:00,
2013-06-06 12:17:00,66.2,53.0,0.00,SSW,204,5.1,11.8,63,0.00,,,0.00,WUHU216CR1000,2013-06-06 19:17:00,
2013-06-06 12:22:00,66.2,53.0,0.00,SSW,204,5.1,11.8,63,0.00,,,0.00,WUHU216CR1000,2013-06-06 19:22:00,
2013-06-06 12:27:00,66.2,53.0,0.00,SSW,204,5.1,11.8,63,0.00,,,0.00,WUHU216CR1000,2013-06-06 19:27:00,
2013-06-06 12:32:00,67.2,53.3,0.00,SSW,206,4.5,11.8,61,0.00,,,0.00,WUHU216CR1000,2013-06-06 19:32:00,
2013-06-06 12:34:00,67.2,53.3,0.00,SSW,206,4.5,11.8,61,0.00,,,0.00,WUHU216CR1000,2013-06-06 19:34:00,
2013-06-06 12:39:00,67.2,53.3,0.00,SSW,206,4.5,11.0,61,0.00,,,0.00,WUHU216CR1000,2013-06-06 19:39:00,
2013-06-06 12:44:00,67.2,53.3,0.00,SSW,206,4.5,11.0,61,0.00,,,0.00,WUHU216CR1000,2013-06-06 19:44:00,
2013-06-06 12:49:00,67.8,53.2,0.00,SSW,193,4.8,11.0,60,0.00,,,0.00,WUHU216CR1000,2013-06-06 19:49:00,
2013-06-06 12:54:00,67.8,53.2,0.00,SSW,193,4.8,10.1,60,0.00,,,0.00,WUHU216CR1000,2013-06-06 19:54:00,
2013-06-06 12:59:00,67.8,53.2,0.00,SSW,193,4.8,10.1,60,0.00,,,0.00,WUHU216CR1000,2013-06-06 19:59:00,
2013-06-06 13:04:00,68.8,53.4,0.00,South,178,5.1,10.5,58,0.00,,,0.00,WUHU216CR1000,2013-06-06 20:04:00,
2013-06-06 13:09:00,68.8,53.4,0.00,South,178,5.1,10.5,58,0.00,,,0.00,WUHU216CR1000,2013-06-06 20:09:00,
2013-06-06 13:14:00,68.8,53.4,0.00,South,178,5.1,10.5,58,0.00,,,0.00,WUHU216CR1000,2013-06-06 20:14:00,
2013-06-06 13:19:00,69.3,53.6,0.00,South,181,4.7,12.5,57,0.00,,,0.00,WUHU216CR1000,2013-06-06 20:19:00,
2013-06-06 13:24:00,69.3,53.6,0.00,South,181,4.7,12.5,57,0.00,,,0.00,WUHU216CR1000,2013-06-06 20:24:00,
2013-06-06 13:29:00,69.3,53.6,0.00,South,181,4.7,12.5,57,0.00,,,0.00,WUHU216CR1000,2013-06-06 20:29:00,
2013-06-06 13:34:00,70.6,53.9,0.00,SSW,199,4.3,12.5,56,0.00,,,0.00,WUHU216CR1000,2013-06-06 20:34:00,
2013-06-06 13:39:00,70.6,53.9,0.00,SSW,199,4.3,9.0,56,0.00,,,0.00,WUHU216CR1000,2013-06-06 20:39:00,
2013-06-06 13:44:00,70.6,53.9,0.00,SSW,199,4.3,9.0,56,0.00,,,0.00,WUHU216CR1000,2013-06-06 20:44:00,
2013-06-06 13:49:00,72.2,54.5,0.00,SW,224,3.3,9.0,54,0.00,,,0.00,WUHU216CR1000,2013-06-06 20:49:00,
2013-06-06 13:54:00,72.2,54.5,0.00,SW,224,3.3,8.6,54,0.00,,,0.00,WUHU216CR1000,2013-06-06 20:54:00,
2013-06-06 13:59:00,72.2,54.5,0.00,SW,224,3.3,8.6,54,0.00,,,0.00,WUHU216CR1000,2013-06-06 20:59:00,
2013-06-06 14:04:00,73.1,54.3,0.00,SW,215,3.7,9.0,52,0.00,,,0.00,WUHU216CR1000,2013-06-06 21:04:00,
2013-06-06 14:09:00,73.1,54.3,0.00,SW,215,3.7,9.0,52,0.00,,,0.00,WUHU216CR1000,2013-06-06 21:09:00,
2013-06-06 14:14:00,73.1,54.3,0.00,SW,215,3.7,9.0,52,0.00,,,0.00,WUHU216CR1000,2013-06-06 21:14:00,
2013-06-06 14:19:00,72.9,54.1,0.00,SSW,213,4.1,9.0,52,0.00,,,0.00,WUHU216CR1000,2013-06-06 21:19:00,
2013-06-06 14:24:00,72.9,54.1,0.00,SSW,213,4.1,9.0,52,0.00,,,0.00,WUHU216CR1000,2013-06-06 21:24:00,
2013-06-06 14:29:00,72.9,54.1,0.00,SSW,213,4.1,9.0,52,0.00,,,0.00,WUHU216CR1000,2013-06-06 21:29:00,
2013-06-06 14:34:00,73.0,54.2,0.00,SW,223,4.4,11.8,52,0.00,,,0.00,WUHU216CR1000,2013-06-06 21:34:00,
2013-06-06 14:39:00,73.0,54.2,0.00,SW,223,4.4,11.8,52,0.00,,,0.00,WUHU216CR1000,2013-06-06 21:39:00,
2013-06-06 14:44:00,73.0,54.2,0.00,SW,223,4.4,11.8,52,0.00,,,0.00,WUHU216CR1000,2013-06-06 21:44:00,
2013-06-06 14:49:00,73.6,54.0,0.00,SW,216,4.6,11.8,50,0.00,,,0.00,WUHU216CR1000,2013-06-06 21:49:00,
2013-06-06 14:54:00,73.6,54.0,0.00,SW,216,4.6,9.9,50,0.00,,,0.00,WUHU216CR1000,2013-06-06 21:54:00,
2013-06-06 14:59:00,73.6,54.0,0.00,SW,216,4.6,9.9,50,0.00,,,0.00,WUHU216CR1000,2013-06-06 21:59:00,
2013-06-06 15:04:00,72.6,53.6,0.00,SSW,211,5.2,12.7,51,0.00,,,0.00,WUHU216CR1000,2013-06-06 22:04:00,
2013-06-06 15:09:00,72.6,53.6,0.00,SSW,211,5.2,12.7,51,0.00,,,0.00,WUHU216CR1000,2013-06-06 22:09:00,
2013-06-06 15:14:00,72.6,53.6,0.00,SSW,211,5.2,12.7,51,0.00,,,0.00,WUHU216CR1000,2013-06-06 22:14:00,
2013-06-06 15:19:00,72.4,53.3,0.00,SSW,203,6.6,13.8,51,0.00,,,0.00,WUHU216CR1000,2013-06-06 22:19:00,
2013-06-06 15:24:00,72.4,53.3,0.00,SSW,203,6.6,13.8,51,0.00,,,0.00,WUHU216CR1000,2013-06-06 22:24:00,
2013-06-06 15:29:00,72.4,53.3,0.00,SSW,203,6.6,13.8,51,0.00,,,0.00,WUHU216CR1000,2013-06-06 22:29:00,
2013-06-06 15:34:00,71.0,52.8,0.00,SSW,196,8.2,15.8,53,0.00,,,0.00,WUHU216CR1000,2013-06-06 22:34:00,
2013-06-06 15:39:00,71.0,52.8,0.00,SSW,196,8.2,15.8,53,0.00,,,0.00,WUHU216CR1000,2013-06-06 22:39:00,
2013-06-06 15:44:00,71.0,52.8,0.00,SSW,196,8.2,15.8,53,0.00,,,0.00,WUHU216CR1000,2013-06-06 22:44:00,
2013-06-06 15:49:00,70.7,53.0,0.00,SSW,201,7.4,16.2,54,0.00,,,0.00,WUHU216CR1000,2013-06-06 22:49:00,
2013-06-06 15:54:00,70.7,53.0,0.00,SSW,201,7.4,16.2,54,0.00,,,0.00,WUHU216CR1000,2013-06-06 22:54:00,
2013-06-06 15:59:00,70.7,53.0,0.00,SSW,201,7.4,16.2,54,0.00,,,0.00,WUHU216CR1000,2013-06-06 22:59:00,
2013-06-06 16:04:00,70.2,53.2,0.00,SSW,194,7.2,16.2,55,0.00,,,0.00,WUHU216CR1000,2013-06-06 23:04:00,
2013-06-06 16:09:00,70.2,53.2,0.00,SSW,194,7.2,14.0,55,0.00,,,0.00,WUHU216CR1000,2013-06-06 23:09:00,
2013-06-06 16:14:00,70.2,53.2,0.00,SSW,194,7.2,14.0,55,0.00,,,0.00,WUHU216CR1000,2013-06-06 23:14:00,
2013-06-06 16:19:00,69.3,52.7,0.00,South,186,8.8,16.0,56,0.00,,,0.00,WUHU216CR1000,2013-06-06 23:19:00,
2013-06-06 16:24:00,69.3,52.7,0.00,South,186,8.8,16.0,56,0.00,,,0.00,WUHU216CR1000,2013-06-06 23:24:00,
2013-06-06 16:29:00,69.3,52.7,0.00,South,186,8.8,16.0,56,0.00,,,0.00,WUHU216CR1000,2013-06-06 23:29:00,
2013-06-06 16:34:00,69.2,52.9,0.00,SSW,197,6.5,16.0,56,0.00,,,0.00,WUHU216CR1000,2013-06-06 23:34:00,
2013-06-06 16:39:00,69.2,52.9,0.00,SSW,197,6.5,12.5,56,0.00,,,0.00,WUHU216CR1000,2013-06-06 23:39:00,
2013-06-06 16:44:00,69.2,52.9,0.00,SSW,197,6.5,12.5,56,0.00,,,0.00,WUHU216CR1000,2013-06-06 23:44:00,
2013-06-06 16:49:00,69.4,52.9,0.00,SSW,193,6.6,12.7,56,0.00,,,0.00,WUHU216CR1000,2013-06-06 23:49:00,
2013-06-06 16:54:00,69.4,52.9,0.00,SSW,193,6.6,12.7,56,0.00,,,0.00,WUHU216CR1000,2013-06-06 23:54:00,
2013-06-06 16:59:00,69.4,52.9,0.00,SSW,193,6.6,12.7,56,0.00,,,0.00,WUHU216CR1000,2013-06-06 23:59:00,
2013-06-06 17:04:00,68.7,52.9,0.00,SSW,198,6.4,12.7,57,0.00,,,0.00,WUHU216CR1000,2013-06-07 00:04:00,
2013-06-06 17:09:00,68.7,52.9,0.00,SSW,198,6.4,12.5,57,0.00,,,0.00,WUHU216CR1000,2013-06-07 00:09:00,
2013-06-06 17:14:00,68.7,52.9,0.00,SSW,198,6.4,12.5,57,0.00,,,0.00,WUHU216CR1000,2013-06-07 00:14:00,
2013-06-06 17:19:00,67.9,52.6,0.00,SSW,194,6.9,12.5,58,0.00,,,0.00,WUHU216CR1000,2013-06-07 00:19:00,
2013-06-06 17:24:00,67.9,52.6,0.00,SSW,194,6.9,12.3,58,0.00,,,0.00,WUHU216CR1000,2013-06-07 00:24:00,
2013-06-06 17:29:00,67.9,52.6,0.00,SSW,194,6.9,12.3,58,0.00,,,0.00,WUHU216CR1000,2013-06-07 00:29:00,
2013-06-06 17:34:00,67.2,52.3,0.00,SSW,201,6.2,12.3,59,0.00,,,0.00,WUHU216CR1000,2013-06-07 00:34:00,
2013-06-06 17:39:00,67.2,52.3,0.00,SSW,201,6.2,11.8,59,0.00,,,0.00,WUHU216CR1000,2013-06-07 00:39:00,
2013-06-06 17:44:00,67.2,52.3,0.00,SSW,201,6.2,11.8,59,0.00,,,0.00,WUHU216CR1000,2013-06-07 00:44:00,
2013-06-06 17:49:00,65.6,51.5,0.00,SSW,195,6.6,12.7,61,0.00,,,0.00,WUHU216CR1000,2013-06-07 00:49:00,
2013-06-06 17:54:00,65.6,51.5,0.00,SSW,195,6.6,12.7,61,0.00,,,0.00,WUHU216CR1000,2013-06-07 00:54:00,
2013-06-06 17:59:00,65.6,51.5,0.00,SSW,195,6.6,12.7,61,0.00,,,0.00,WUHU216CR1000,2013-06-07 00:59:00,
2013-06-06 18:04:00,64.1,51.2,0.00,SSW,195,7.3,14.5,63,0.00,,,0.00,WUHU216CR1000,2013-06-07 01:04:00,
2013-06-06 18:09:00,64.1,51.2,0.00,SSW,195,7.3,14.5,63,0.00,,,0.00,WUHU216CR1000,2013-06-07 01:09:00,
2013-06-06 18:14:00,64.1,51.2,0.00,SSW,195,7.3,14.5,63,0.00,,,0.00,WUHU216CR1000,2013-06-07 01:14:00,
2013-06-06 18:19:00,62.9,51.1,0.00,SSW,194,7.4,14.5,65,0.00,,,0.00,WUHU216CR1000,2013-06-07 01:19:00,
2013-06-06 18:24:00,62.9,51.1,0.00,SSW,194,7.4,13.6,65,0.00,,,0.00,WUHU216CR1000,2013-06-07 01:24:00,
2013-06-06 18:29:00,62.9,51.1,0.00,SSW,194,7.4,13.6,65,0.00,,,0.00,WUHU216CR1000,2013-06-07 01:29:00,
2013-06-06 18:34:00,62.0,51.0,0.00,SSW,199,6.3,13.6,67,0.00,,,0.00,WUHU216CR1000,2013-06-07 01:34:00,
2013-06-06 18:39:00,62.0,51.0,0.00,SSW,199,6.3,10.7,67,0.00,,,0.00,WUHU216CR1000,2013-06-07 01:39:00,
2013-06-06 18:44:00,62.0,51.0,0.00,SSW,199,6.3,10.7,67,0.00,,,0.00,WUHU216CR1000,2013-06-07 01:44:00,
2013-06-06 18:49:00,61.7,51.1,0.00,SSW,202,4.1,10.7,68,0.00,,,0.00,WUHU216CR1000,2013-06-07 01:49:00,
2013-06-06 18:54:00,61.7,51.1,0.00,SSW,202,4.1,8.6,68,0.00,,,0.00,WUHU216CR1000,2013-06-07 01:54:00,
2013-06-06 18:59:00,61.7,51.1,0.00,SSW,202,4.1,8.6,68,0.00,,,0.00,WUHU216CR1000,2013-06-07 01:59:00,
2013-06-06 19:04:00,60.7,50.9,0.00,South,183,3.5,8.6,70,0.00,,,0.00,WUHU216CR1000,2013-06-07 02:04:00,
2013-06-06 19:09:00,60.7,50.9,0.00,South,183,3.5,7.0,70,0.00,,,0.00,WUHU216CR1000,2013-06-07 02:09:00,
2013-06-06 19:14:00,60.7,50.9,0.00,South,183,3.5,7.0,70,0.00,,,0.00,WUHU216CR1000,2013-06-07 02:14:00,
2013-06-06 19:19:00,58.8,50.8,0.00,SSE,168,3.2,7.0,75,0.00,,,0.00,WUHU216CR1000,2013-06-07 02:19:00,
2013-06-06 19:24:00,58.8,50.8,0.00,SSE,168,3.2,6.8,75,0.00,,,0.00,WUHU216CR1000,2013-06-07 02:24:00,
2013-06-06 19:29:00,58.8,50.8,0.00,SSE,168,3.2,6.8,75,0.00,,,0.00,WUHU216CR1000,2013-06-07 02:29:00,
2013-06-06 19:34:00,57.6,51.0,0.00,SSE,159,3.1,6.8,78,0.00,,,0.00,WUHU216CR1000,2013-06-07 02:34:00,
2013-06-06 19:39:00,57.6,51.0,0.00,SSE,159,3.1,6.1,78,0.00,,,0.00,WUHU216CR1000,2013-06-07 02:39:00,
2013-06-06 19:44:00,57.6,51.0,0.00,SSE,159,3.1,6.1,78,0.00,,,0.00,WUHU216CR1000,2013-06-07 02:44:00,
2013-06-06 19:49:00,57.6,51.0,0.00,SSE,159,3.1,6.1,78,0.00,,,0.00,WUHU216CR1000,2013-06-07 02:49:00,
2013-06-06 19:54:00,56.4,50.5,0.00,SE,146,4.3,7.2,81,0.00,,,0.00,WUHU216CR1000,2013-06-07 02:54:00,
2013-06-06 19:59:00,56.4,50.5,0.00,SE,146,4.3,7.2,81,0.00,,,0.00,WUHU216CR1000,2013-06-07 02:59:00,
2013-06-06 20:04:00,55.2,50.2,0.00,SE,145,4.8,8.3,83,0.00,,,0.00,WUHU216CR1000,2013-06-07 03:04:00,
2013-06-06 20:09:00,55.2,50.2,0.00,SE,145,4.8,8.3,83,0.00,,,0.00,WUHU216CR1000,2013-06-07 03:09:00,
2013-06-06 20:14:00,55.2,50.2,0.00,SE,145,4.8,8.3,83,0.00,,,0.00,WUHU216CR1000,2013-06-07 03:14:00,
2013-06-06 20:19:00,54.2,49.9,0.00,SE,139,4.4,8.3,85,0.00,,,0.00,WUHU216CR1000,2013-06-07 03:19:00,
2013-06-06 20:24:00,54.2,49.9,0.00,SE,139,4.4,7.7,85,0.00,,,0.00,WUHU216CR1000,2013-06-07 03:24:00,
2013-06-06 20:29:00,54.2,49.9,0.00,SE,139,4.4,7.7,85,0.00,,,0.00,WUHU216CR1000,2013-06-07 03:29:00,
2013-06-06 20:34:00,53.0,49.4,0.00,SE,137,5.1,8.8,87,0.00,,,0.00,WUHU216CR1000,2013-06-07 03:34:00,
2013-06-06 20:39:00,53.0,49.4,0.00,SE,137,5.1,8.8,87,0.00,,,0.00,WUHU216CR1000,2013-06-07 03:39:00,
2013-06-06 20:44:00,53.0,49.4,0.00,SE,137,5.1,8.8,87,0.00,,,0.00,WUHU216CR1000,2013-06-07 03:44:00,
2013-06-06 20:49:00,52.1,49.1,0.00,SE,141,4.3,8.8,89,0.00,,,0.00,WUHU216CR1000,2013-06-07 03:49:00,
2013-06-06 20:54:00,52.1,49.1,0.00,SE,141,4.3,8.3,89,0.00,,,0.00,WUHU216CR1000,2013-06-07 03:54:00,
2013-06-06 20:59:00,52.1,49.1,0.00,SE,141,4.3,8.3,89,0.00,,,0.00,WUHU216CR1000,2013-06-07 03:59:00,
2013-06-06 21:01:00,52.1,49.1,0.00,SE,141,4.3,8.3,89,0.00,,,0.00,WUHU216CR1000,2013-06-07 04:01:00,
2013-06-06 21:06:00,51.6,49.0,0.00,SE,145,4.0,7.7,91,0.00,,,0.00,WUHU216CR1000,2013-06-07 04:06:00,
2013-06-06 21:11:00,51.6,49.0,0.00,SE,145,4.0,7.7,91,0.00,,,0.00,WUHU216CR1000,2013-06-07 04:11:00,
2013-06-06 21:17:00,51.7,49.4,0.00,SSE,149,3.9,7.7,92,0.00,,,0.00,WUHU216CR1000,2013-06-07 04:17:00,
2013-06-06 21:22:00,51.7,49.4,0.00,SSE,149,3.9,7.2,92,0.00,,,0.00,WUHU216CR1000,2013-06-07 04:22:00,
2013-06-06 21:27:00,51.7,49.4,0.00,SSE,149,3.9,7.2,92,0.00,,,0.00,WUHU216CR1000,2013-06-07 04:27:00,
2013-06-06 21:32:00,51.8,49.5,0.00,SE,145,4.3,7.2,92,0.00,,,0.00,WUHU216CR1000,2013-06-07 04:32:00,
2013-06-06 21:37:00,51.8,49.5,0.00,SE,145,4.3,7.0,92,0.00,,,0.00,WUHU216CR1000,2013-06-07 04:37:00,
2013-06-06 21:42:00,51.8,49.5,0.00,SE,145,4.3,7.0,92,0.00,,,0.00,WUHU216CR1000,2013-06-07 04:42:00,
2013-06-06 21:47:00,51.8,49.6,0.00,SSE,148,3.4,7.0,92,0.00,,,0.00,WUHU216CR1000,2013-06-07 04:47:00,
2013-06-06 21:52:00,51.8,49.6,0.00,SSE,148,3.4,6.1,92,0.00,,,0.00,WUHU216CR1000,2013-06-07 04:52:00,
2013-06-06 21:57:00,51.8,49.6,0.00,SSE,148,3.4,6.1,92,0.00,,,0.00,WUHU216CR1000,2013-06-07 04:57:00,
2013-06-06 22:02:00,51.8,49.6,0.00,SSE,151,3.2,7.0,92,0.00,,,0.00,WUHU216CR1000,2013-06-07 05:02:00,
2013-06-06 22:07:00,51.8,49.6,0.00,SSE,151,3.2,7.0,92,0.00,,,0.00,WUHU216CR1000,2013-06-07 05:07:00,
2013-06-06 22:12:00,51.8,49.6,0.00,SSE,151,3.2,7.0,92,0.00,,,0.00,WUHU216CR1000,2013-06-07 05:12:00,
2013-06-06 22:17:00,51.6,49.4,0.00,SSE,158,4.0,7.0,92,0.00,,,0.00,WUHU216CR1000,2013-06-07 05:17:00,
2013-06-06 22:22:00,51.6,49.4,0.00,SSE,158,4.0,6.8,92,0.00,,,0.00,WUHU216CR1000,2013-06-07 05:22:00,
2013-06-06 22:27:00,51.6,49.4,0.00,SSE,158,4.0,6.8,92,0.00,,,0.00,WUHU216CR1000,2013-06-07 05:27:00,
2013-06-06 22:32:00,51.4,49.3,0.00,SSE,149,3.6,6.8,92,0.00,,,0.00,WUHU216CR1000,2013-06-07 05:32:00,
2013-06-06 22:37:00,51.4,49.3,0.00,SSE,149,3.6,6.1,92,0.00,,,0.00,WUHU216CR1000,2013-06-07 05:37:00,
2013-06-06 22:42:00,51.4,49.3,0.00,SSE,149,3.6,6.1,92,0.00,,,0.00,WUHU216CR1000,2013-06-07 05:42:00,
2013-06-06 22:47:00,51.4,49.3,0.00,SSE,155,2.6,6.1,93,0.00,,,0.00,WUHU216CR1000,2013-06-07 05:47:00,
2013-06-06 22:52:00,51.4,49.3,0.00,SSE,155,2.6,4.8,93,0.00,,,0.00,WUHU216CR1000,2013-06-07 05:52:00,
2013-06-06 22:57:00,51.4,49.3,0.00,SSE,155,2.6,4.8,93,0.00,,,0.00,WUHU216CR1000,2013-06-07 05:57:00,
2013-06-06 23:02:00,51.3,49.2,0.00,SSE,147,3.5,5.7,93,0.00,,,0.00,WUHU216CR1000,2013-06-07 06:02:00,
2013-06-06 23:07:00,51.3,49.2,0.00,SSE,147,3.5,5.7,93,0.00,,,0.00,WUHU216CR1000,2013-06-07 06:07:00,
2013-06-06 23:12:00,51.3,49.2,0.00,SSE,147,3.5,5.7,93,0.00,,,0.00,WUHU216CR1000,2013-06-07 06:12:00,
2013-06-06 23:17:00,51.2,49.2,0.00,SSE,148,3.2,5.7,93,0.00,,,0.00,WUHU216CR1000,2013-06-07 06:17:00,
2013-06-06 23:22:00,51.2,49.2,0.00,SSE,148,3.2,5.3,93,0.00,,,0.00,WUHU216CR1000,2013-06-07 06:22:00,
2013-06-06 23:27:00,51.2,49.2,0.00,SSE,148,3.2,5.3,93,0.00,,,0.00,WUHU216CR1000,2013-06-07 06:27:00,
2013-06-06 23:32:00,51.2,49.2,0.00,South,179,2.2,5.3,93,0.00,,,0.00,WUHU216CR1000,2013-06-07 06:32:00,
2013-06-06 23:37:00,51.2,49.2,0.00,South,179,2.2,4.8,93,0.00,,,0.00,WUHU216CR1000,2013-06-07 06:37:00,
2013-06-06 23:42:00,51.2,49.2,0.00,South,179,2.2,4.8,93,0.00,,,0.00,WUHU216CR1000,2013-06-07 06:42:00,
2013-06-06 23:47:00,51.2,49.2,0.00,South,179,2.2,4.8,93,0.00,,,0.00,WUHU216CR1000,2013-06-07 06:47:00,
2013-06-06 23:52:00,51.3,49.1,0.00,South,173,1.9,4.8,92,0.00,,,0.00,WUHU216CR1000,2013-06-07 06:52:00,
2013-06-06 23:57:00,51.3,49.1,0.00,South,173,1.9,4.2,92,0.00,,,0.00,WUHU216CR1000,2013-06-07 06:57:00,